AAL2983 KSAN-KPHX

Flight info

Callsign AAL2983
Flight time N/A
Altitude 31000
Route ZZOOO4 HOGGZ HYDRR1
Aircraft A21N/M-SDE2E3FGHIRWXY/LB1

Departure

Time 2026-05-05 06:03
Airport San Diego International Airport (KSAN)

Arrival

Time N/A
Airport Phoenix Sky Harbor International Airport (KPHX)
Time Latitude Longitude Altitude Speed Heading
2026-05-05 05:44 32.73337 -117.20194 28 ft 0 kts 83°
2026-05-05 05:52 32.73336 -117.20202 28 ft 4 kts 81°
2026-05-05 05:52 32.73329 -117.20233 28 ft 4 kts 60°
2026-05-05 05:52 32.73312 -117.20254 28 ft 4 kts 19°
2026-05-05 05:52 32.73296 -117.20255 28 ft 1 kts 344°
2026-05-05 05:53 32.73292 -117.20254 28 ft 0 kts 344°
2026-05-05 05:56 32.73293 -117.20254 28 ft 1 kts 344°
2026-05-05 05:56 32.73309 -117.20260 28 ft 4 kts 344°
2026-05-05 05:57 32.73349 -117.20273 28 ft 8 kts 344°
2026-05-05 05:57 32.73413 -117.20271 28 ft 11 kts 15°
2026-05-05 05:57 32.73499 -117.20243 28 ft 14 kts 16°
2026-05-05 05:57 32.73537 -117.20142 28 ft 17 kts 102°
2026-05-05 05:58 32.73501 -117.19996 28 ft 20 kts 105°
2026-05-05 05:58 32.73462 -117.19825 28 ft 23 kts 105°
2026-05-05 05:58 32.73414 -117.19636 28 ft 25 kts 107°
2026-05-05 05:58 32.73362 -117.19424 28 ft 28 kts 105°
2026-05-05 05:59 32.73308 -117.19193 28 ft 30 kts 107°
2026-05-05 05:59 32.73247 -117.18946 28 ft 32 kts 106°
2026-05-05 05:59 32.73201 -117.18754 38 ft 23 kts 105°
2026-05-05 05:59 32.73155 -117.18563 28 ft 25 kts 106°
2026-05-05 06:00 32.73107 -117.18363 27 ft 26 kts 106°
2026-05-05 06:00 32.73054 -117.18146 27 ft 28 kts 106°
2026-05-05 06:00 32.73011 -117.17968 27 ft 16 kts 106°
2026-05-05 06:00 32.72978 -117.17833 27 ft 18 kts 107°
2026-05-05 06:01 32.72945 -117.17709 28 ft 4 kts 88°
2026-05-05 06:01 32.72953 -117.17680 28 ft 0 kts 69°
2026-05-05 06:01 32.72957 -117.17668 28 ft 3 kts 70°
2026-05-05 06:02 32.72968 -117.17631 28 ft 6 kts 71°
2026-05-05 06:02 32.72995 -117.17574 28 ft 10 kts 26°
2026-05-05 06:02 32.73035 -117.17638 28 ft 8 kts 285°
2026-05-05 06:02 32.73075 -117.17813 28 ft 56 kts 285°
2026-05-05 06:03 32.73277 -117.18654 29 ft 151 kts 285°
2026-05-05 06:03 32.73606 -117.20029 548 ft 179 kts 285°
2026-05-05 06:03 32.74006 -117.21566 1191 ft 214 kts 285°
2026-05-05 06:03 32.74506 -117.23374 1863 ft 245 kts 286°
2026-05-05 06:04 32.75068 -117.25342 2635 ft 259 kts 284°
2026-05-05 06:04 32.75476 -117.27393 3855 ft 252 kts 278°
2026-05-05 06:04 32.75735 -117.29429 5087 ft 246 kts 277°
2026-05-05 06:04 32.76202 -117.31352 6291 ft 244 kts 294°
2026-05-05 06:05 32.76845 -117.33226 7173 ft 247 kts 276°
2026-05-05 06:05 32.76552 -117.35161 8081 ft 241 kts 240°
2026-05-05 06:05 32.75331 -117.36505 8970 ft 250 kts 208°
2026-05-05 06:05 32.73568 -117.36976 9535 ft 273 kts 184°
2026-05-05 06:06 32.71622 -117.36915 10307 ft 283 kts 174°
2026-05-05 06:06 32.69826 -117.35984 11347 ft 287 kts 144°
2026-05-05 06:06 32.68539 -117.34185 12438 ft 287 kts 128°
2026-05-05 06:06 32.67429 -117.32200 13395 ft 289 kts 127°
2026-05-05 06:07 32.66316 -117.30196 14186 ft 294 kts 128°
2026-05-05 06:07 32.65143 -117.28135 14713 ft 310 kts 129°
2026-05-05 06:07 32.63904 -117.25922 14943 ft 336 kts 124°
2026-05-05 06:07 32.62975 -117.23275 15022 ft 371 kts 107°
2026-05-05 06:08 32.62594 -117.20155 15039 ft 387 kts 98°
2026-05-05 06:08 32.62358 -117.16973 15271 ft 388 kts 98°
2026-05-05 06:08 32.62119 -117.13760 15971 ft 392 kts 98°
2026-05-05 06:08 32.62125 -117.10490 16711 ft 401 kts 86°
2026-05-05 06:09 32.62803 -117.07279 17432 ft 410 kts 72°
2026-05-05 06:09 32.63842 -117.04100 18152 ft 416 kts 70°
2026-05-05 06:09 32.64932 -117.00897 18775 ft 421 kts 70°
2026-05-05 06:09 32.66003 -116.97642 19369 ft 425 kts 73°
2026-05-05 06:10 32.66659 -116.94229 19939 ft 424 kts 88°
2026-05-05 06:10 32.66817 -116.90735 20521 ft 426 kts 92°
2026-05-05 06:10 32.66876 -116.87188 21108 ft 430 kts 93°
2026-05-05 06:10 32.66931 -116.83624 21698 ft 434 kts 94°
2026-05-05 06:11 32.66996 -116.80072 22299 ft 438 kts 93°
2026-05-05 06:11 32.67072 -116.76445 22899 ft 442 kts 94°
2026-05-05 06:11 32.67064 -116.72792 23472 ft 444 kts 96°
2026-05-05 06:11 32.67009 -116.69097 23941 ft 449 kts 96°
2026-05-05 06:12 32.66949 -116.65376 24353 ft 455 kts 97°
2026-05-05 06:12 32.66887 -116.61591 24756 ft 461 kts 97°
2026-05-05 06:12 32.66825 -116.57760 25136 ft 466 kts 97°
2026-05-05 06:12 32.66759 -116.53884 25485 ft 471 kts 97°
2026-05-05 06:13 32.66695 -116.50031 25897 ft 475 kts 98°
2026-05-05 06:13 32.66629 -116.46096 26269 ft 480 kts 98°
2026-05-05 06:13 32.66636 -116.42093 26632 ft 490 kts 94°
2026-05-05 06:13 32.66954 -116.38015 26992 ft 499 kts 90°
2026-05-05 06:14 32.67337 -116.33890 27357 ft 504 kts 90°
2026-05-05 06:14 32.67728 -116.29736 27696 ft 509 kts 90°
2026-05-05 06:14 32.68117 -116.25533 28056 ft 514 kts 91°
2026-05-05 06:14 32.68507 -116.21272 28304 ft 521 kts 91°
2026-05-05 06:15 32.68886 -116.17021 28566 ft 528 kts 92°
2026-05-05 06:15 32.69273 -116.12653 28838 ft 533 kts 92°
2026-05-05 06:15 32.69666 -116.08268 29200 ft 535 kts 92°
2026-05-05 06:15 32.70058 -116.03858 29697 ft 536 kts 93°
2026-05-05 06:16 32.70454 -115.99445 30033 ft 538 kts 92°
2026-05-05 06:16 32.70864 -115.95018 30308 ft 540 kts 92°
2026-05-05 06:16 32.71277 -115.90592 30738 ft 539 kts 92°
2026-05-05 06:16 32.71688 -115.86164 30979 ft 538 kts 92°
2026-05-05 06:17 32.72494 -115.77476 31013 ft 530 kts 92°
2026-05-05 06:17 32.73279 -115.68769 30956 ft 529 kts 92°
2026-05-05 06:18 32.74060 -115.60066 30933 ft 529 kts 92°
2026-05-05 06:18 32.74824 -115.51365 30948 ft 527 kts 94°
2026-05-05 06:19 32.75089 -115.42687 30963 ft 529 kts 97°
2026-05-05 06:19 32.75280 -115.33980 30935 ft 531 kts 97°
2026-05-05 06:20 32.75486 -115.25225 30943 ft 529 kts 97°
2026-05-05 06:20 32.75683 -115.16483 30952 ft 529 kts 97°
2026-05-05 06:21 32.75874 -115.07730 30951 ft 529 kts 97°
2026-05-05 06:21 32.76056 -114.99060 30927 ft 529 kts 97°
2026-05-05 06:22 32.76234 -114.90313 30939 ft 529 kts 97°
2026-05-05 06:22 32.76407 -114.81562 30939 ft 529 kts 97°
2026-05-05 06:23 32.76570 -114.72808 30947 ft 529 kts 97°
2026-05-05 06:23 32.76729 -114.64122 30948 ft 529 kts 97°
2026-05-05 06:24 32.76877 -114.55379 30948 ft 529 kts 98°
2026-05-05 06:24 32.76998 -114.46637 30950 ft 529 kts 98°
2026-05-05 06:25 32.77111 -114.37899 30948 ft 529 kts 98°
2026-05-05 06:25 32.77222 -114.29144 30867 ft 529 kts 97°
2026-05-05 06:26 32.77328 -114.20470 30885 ft 529 kts 97°
2026-05-05 06:26 32.77426 -114.11719 30894 ft 529 kts 97°
2026-05-05 06:27 32.78375 -113.98615 30895 ft 535 kts 89°
2026-05-05 06:28 32.79359 -113.89855 30900 ft 535 kts 89°
2026-05-05 06:28 32.80316 -113.81157 30377 ft 525 kts 90°
2026-05-05 06:28 32.80782 -113.76860 29766 ft 523 kts 90°
2026-05-05 06:29 32.81261 -113.72586 28999 ft 522 kts 87°
2026-05-05 06:29 32.82206 -113.68383 28295 ft 530 kts 72°
2026-05-05 06:29 32.83985 -113.64541 27640 ft 530 kts 55°
2026-05-05 06:29 32.86410 -113.61332 27017 ft 526 kts 43°
2026-05-05 06:30 32.89066 -113.58356 26374 ft 523 kts 43°
2026-05-05 06:30 32.91636 -113.55306 25746 ft 520 kts 46°
2026-05-05 06:30 32.94084 -113.52172 25224 ft 514 kts 49°
2026-05-05 06:30 32.96452 -113.49010 24776 ft 507 kts 49°
2026-05-05 06:31 32.98771 -113.45872 24230 ft 503 kts 50°
2026-05-05 06:31 33.01061 -113.42756 23667 ft 497 kts 50°
2026-05-05 06:31 33.03334 -113.39666 23054 ft 493 kts 50°
2026-05-05 06:31 33.05569 -113.36624 22544 ft 484 kts 50°
2026-05-05 06:32 33.07776 -113.33631 22022 ft 477 kts 50°
2026-05-05 06:32 33.09956 -113.30685 21525 ft 469 kts 50°
2026-05-05 06:32 33.12099 -113.27787 21019 ft 462 kts 49°
2026-05-05 06:32 33.14213 -113.24929 20498 ft 456 kts 49°
2026-05-05 06:33 33.16296 -113.22105 20080 ft 447 kts 49°
2026-05-05 06:33 33.18303 -113.19382 19675 ft 439 kts 49°
2026-05-05 06:33 33.20299 -113.16672 19275 ft 430 kts 49°
2026-05-05 06:33 33.22256 -113.14016 18895 ft 421 kts 49°
2026-05-05 06:34 33.24173 -113.11411 18535 ft 413 kts 49°
2026-05-05 06:34 33.26032 -113.08850 18185 ft 404 kts 51°
2026-05-05 06:34 33.27461 -113.06017 17813 ft 393 kts 70°
2026-05-05 06:34 33.28055 -113.02915 17518 ft 377 kts 90°
2026-05-05 06:35 33.28009 -112.99818 17222 ft 369 kts 97°
2026-05-05 06:35 33.27893 -112.96765 16918 ft 366 kts 96°
2026-05-05 06:35 33.27856 -112.94758 16715 ft 364 kts 95°
2026-05-05 06:35 33.27857 -112.91747 16414 ft 361 kts 93°
2026-05-05 06:36 33.27901 -112.88759 16122 ft 358 kts 92°
2026-05-05 06:36 33.27962 -112.85804 15829 ft 352 kts 92°